This is the latest recevied weather packets stored in our database for station/object N5VIS. If no packets are shown the sender has not sent any weather packets the latest 10 day(s).
| Time | Temp. | Humidity | Pressure | Rain* | Wind** | Luminosity | Snow |
|---|---|---|---|---|---|---|---|
| 1777782467 | 18.33° C | 57% | 1018.4 hPa | 0 mm | - | - | - |
| 1777782164 | 18.33° C | 59% | 1018.4 hPa | 0 mm | - | - | - |
| 1777781859 | 17.78° C | 59% | 1018.3 hPa | 0 mm | - | - | - |
| 1777781558 | 18.33° C | 60% | 1018.4 hPa | 0 mm | - | - | - |
| 1777781255 | 18.33° C | 59% | 1018.3 hPa | 0 mm | - | - | - |
| 1777780952 | 18.33° C | 59% | 1018.1 hPa | 0 mm | - | - | - |
| 1777780649 | 18.33° C | 57% | 1018.2 hPa | 0 mm | - | - | - |
| 1777780341 | 18.33° C | 57% | 1018.3 hPa | 0 mm | - | - | - |
| 1777780038 | 18.33° C | 57% | 1018.1 hPa | 0 mm | - | - | - |
| 1777779735 | 18.33° C | 58% | 1018.1 hPa | 0 mm | - | - | - |
| 1777779433 | 18.33° C | 58% | 1018.2 hPa | 0 mm | - | - | - |
| 1777779130 | 18.33° C | 57% | 1018.1 hPa | 0 mm | - | - | - |
| 1777778828 | 18.33° C | 57% | 1018.1 hPa | 0 mm | - | - | - |
| 1777778526 | 18.33° C | 57% | 1018.1 hPa | 0 mm | - | - | - |
| 1777778223 | 18.33° C | 57% | 1017.9 hPa | 0 mm | - | - | - |
| 1777777922 | 18.89° C | 57% | 1017.8 hPa | 0 mm | - | - | - |
| 1777777617 | 18.89° C | 55% | 1018.1 hPa | 0 mm | - | - | - |
| 1777777314 | 18.33° C | 57% | 1017.9 hPa | 0 mm | - | - | - |
| 1777777011 | 18.89° C | 54% | 1017.8 hPa | 0 mm | - | - | - |
| 1777776709 | 18.89° C | 53% | 1017.9 hPa | 0 mm | - | - | - |
| 1777776404 | 18.89° C | 55% | 1017.6 hPa | 0 mm | - | - | - |
| 1777776102 | 18.89° C | 54% | 1017.9 hPa | 0 mm | - | - | - |
| 1777775798 | 18.89° C | 54% | 1017.6 hPa | 0 mm | - | - | - |
| 1777775496 | 18.89° C | 54% | 1017.6 hPa | 0 mm | - | - | - |
| 1777775191 | 18.89° C | 54% | 1017.6 hPa | 0 mm | - | - | - |
* Rain latest hour (hover to see other rain measurements)
** Current wind speed in m/s (hover to see current wind gust speed)